This is the latest recevied weather packets stored in our database for station/object W4SKW. If no packets are shown the sender has not sent any weather packets the latest 10 day(s).
| Time | Temp. | Humidity | Pressure | Rain* | Wind** | Luminosity | Snow |
|---|---|---|---|---|---|---|---|
| 1777506465 | 22.22° C | 88% | 1011.6 hPa | 0 mm | - | 13 W/m² | - |
| 1777506161 | 22.22° C | 87% | 1011.4 hPa | 0 mm | - | 13 W/m² | - |
| 1777505857 | 22.78° C | 86% | 1011.4 hPa | 0 mm | - | 17 W/m² | - |
| 1777505554 | 22.78° C | 86% | 1011.4 hPa | 0 mm | - | 17 W/m² | - |
| 1777505250 | 22.78° C | 84% | 1011.2 hPa | 0 mm | - | 23 W/m² | - |
| 1777504947 | 22.78° C | 84% | 1011 hPa | 0 mm | - | 30 W/m² | - |
| 1777504644 | 22.78° C | 83% | 1011 hPa | 0 mm | - | 32 W/m² | - |
| 1777504341 | 22.78° C | 84% | 1011.4 hPa | 0 mm | - | 39 W/m² | - |
| 1777504035 | 22.78° C | 83% | 1011.1 hPa | 0 mm | - | 42 W/m² | - |
| 1777503733 | 22.78° C | 84% | 1011.3 hPa | 0 mm | - | 47 W/m² | - |
| 1777503429 | 23.33° C | 83% | 1011.5 hPa | 0 mm | - | 64 W/m² | - |
| 1777503125 | 22.78° C | 82% | 1011.3 hPa | 0 mm | - | 66 W/m² | - |
| 1777502823 | 22.78° C | 82% | 1011.3 hPa | 0 mm | - | 60 W/m² | - |
| 1777502520 | 23.33° C | 82% | 1011.4 hPa | 0 mm | - | 60 W/m² | - |
| 1777502216 | 23.33° C | 80% | 1011.5 hPa | 0 mm | - | 65 W/m² | - |
| 1777501914 | 23.33° C | 83% | 1011.4 hPa | 0 mm | - | 66 W/m² | - |
| 1777501611 | 23.89° C | 83% | 1011.4 hPa | 0 mm | - | 74 W/m² | - |
| 1777501307 | 23.89° C | 79% | 1011.3 hPa | 0 mm | - | 78 W/m² | - |
| 1777501005 | 25° C | 77% | 1011.6 hPa | 0 mm | - | 89 W/m² | - |
| 1777500703 | 25.56° C | 74% | 1011.3 hPa | 0 mm | - | 94 W/m² | - |
| 1777500399 | 26.11° C | 68% | 1011.3 hPa | 0 mm | - | 104 W/m² | - |
| 1777500095 | 25.56° C | 68% | 1011.3 hPa | 0 mm | - | 133 W/m² | - |
| 1777499793 | 25.56° C | 70% | 1011.2 hPa | 0 mm | - | 156 W/m² | - |
| 1777499489 | 26.11° C | 73% | 1011.3 hPa | 0 mm | - | 153 W/m² | - |
| 1777499187 | 26.11° C | 73% | 1011.3 hPa | 0 mm | - | 153 W/m² | - |
* Rain latest hour (hover to see other rain measurements)
** Current wind speed in m/s (hover to see current wind gust speed)